Williston, ND

5:54 AM CDT on October 16, 2019 (GMT -0500)
Sloulin International

Weather History for KISN - August, 2019

Change the Weather History Date:

Saturday, August 17, 2019

  Actual Average Record
Temperature  
Mean Temperature 58 °F 69 °F  
Max Temperature 65 °F 84 °F 102 °F (1996)
Min Temperature 51 °F 54 °F 37 °F (1977)
Degree Days  
Heating Degree Days 7 1  
Month to date heating degree days 15 17  
Since 1 June heating degree days 100 161  
Since 1 July heating degree days 30 41  
Cooling Degree Days 0 5  
Month to date cooling degree days 90 111  
Year to date cooling degree days 334 374  
Since 1 June cooling degree days 328 361  
Growing Degree Days 9 (Base 50)    
Moisture  
Dew Point 48 °F    
Average Humidity 63    
Maximum Humidity 86    
Minimum Humidity 40    
Precipitation  
Precipitation 0.03 in 0.05 in 1.36 in (1930)
Month to date precipitation 1.88 0.82  
Year to date precipitation 11.54 10.49  
Sea Level Pressure  
Sea Level Pressure 29.82 in    
Wind  
Wind Speed 10 mph (WNW)    
Max Wind Speed 18 mph    
Max Gust Speed 30 mph    
Visibility 10 miles    
Events Rain    
T = Trace of Precipitation, MM = Missing Value Source: NWS Daily Summary

Daily Weather History Graph

Daily Weather History Graph

Search for Another Location

Airport or City:

Astronomy

Aug. 17, 2019 Rise Set
Actual Time 6:51 AM CDT 9:04 PM CDT
Civil Twilight 6:17 AM CDT 9:38 PM CDT
Nautical Twilight 5:34 AM CDT 10:21 PM CDT
Astronomical Twilight 4:46 AM CDT 11:08 PM CDT
Moon 10:25 PM CDT (8/17) 8:47 AM CDT (8/17)
Length of Visible Light 15h 21m
Length of Day
14h 13m
Waning Gibbous, 96% of the Moon is Illuminated
Aug 17
Waning Gibbous
Aug 23
Last Quarter
Aug 30
New
Sep 5
First Quarter
Sep 13
Full

Hourly Weather History & Observations

Time (CDT) Temp. Dew Point Humidity Pressure Visibility Wind Dir Wind Speed Gust Speed Precip Events Conditions
12:52 AM 64.9 °F 54.0 °F 68% 29.76 in 10.0 mi NNW 10.4 mph - N/A   Partly Cloudy
1:52 AM 64.0 °F 54.0 °F 70% 29.76 in 10.0 mi NNW 10.4 mph - 0.00 in   Mostly Cloudy
2:52 AM 61.0 °F 55.0 °F 81% 29.77 in 9.0 mi NW 9.2 mph - 0.00 in Rain Light Rain
3:52 AM 60.1 °F 54.0 °F 80% 29.76 in 10.0 mi NNW 8.1 mph - 0.01 in   Mostly Cloudy
4:52 AM 57.9 °F 54.0 °F 87% 29.77 in 10.0 mi NW 8.1 mph - 0.00 in   Mostly Cloudy
5:52 AM 57.9 °F 54.0 °F 87% 29.78 in 10.0 mi West 10.4 mph - N/A   Overcast
6:52 AM 57.0 °F 53.1 °F 87% 29.79 in 10.0 mi WNW 9.2 mph - 0.01 in Rain Light Rain
7:52 AM 57.0 °F 52.0 °F 83% 29.80 in 10.0 mi NW 10.4 mph - 0.00 in   Overcast
8:52 AM 55.9 °F 51.1 °F 84% 29.83 in 10.0 mi NW 11.5 mph - 0.00 in Rain Light Rain
9:52 AM 55.0 °F 51.1 °F 86% 29.85 in 10.0 mi NNW 3.5 mph - 0.01 in Rain Light Rain
10:52 AM 57.0 °F 50.0 °F 77% 29.83 in 10.0 mi NW 6.9 mph - 0.00 in   Overcast
11:20 AM 57.0 °F 48.9 °F 74% 29.84 in 10.0 mi NW 5.8 mph - N/A   Overcast
11:30 AM 57.0 °F 48.9 °F 74% 29.84 in 10.0 mi West 5.8 mph - N/A   Overcast
11:52 AM 57.9 °F 48.0 °F 70% 29.84 in 10.0 mi WNW 10.4 mph - N/A   Overcast
12:52 PM 57.9 °F 46.0 °F 65% 29.85 in 10.0 mi WNW 11.5 mph - N/A   Overcast
1:52 PM 59.0 °F 45.0 °F 60% 29.84 in 10.0 mi West 11.5 mph - N/A   Scattered Clouds
2:52 PM 61.0 °F 45.0 °F 56% 29.84 in 10.0 mi West 12.7 mph - N/A   Overcast
3:52 PM 63.0 °F 45.0 °F 52% 29.84 in 10.0 mi WNW 15.0 mph 21.9 mph 0.00 in   Mostly Cloudy
4:52 PM 63.0 °F 42.1 °F 46% 29.83 in 10.0 mi West 12.7 mph - N/A   Partly Cloudy
5:52 PM 60.1 °F 41.0 °F 49% 29.84 in 10.0 mi WNW 12.7 mph - N/A   Clear
6:52 PM 64.0 °F 39.9 °F 41% 29.83 in 10.0 mi West 15.0 mph - N/A   Clear
7:52 PM 63.0 °F 41.0 °F 45% 29.82 in 10.0 mi West 11.5 mph - N/A   Clear
8:52 PM 57.9 °F 44.1 °F 60% 29.82 in 10.0 mi WSW 6.9 mph - N/A   Clear
9:52 PM 55.0 °F 45.0 °F 69% 29.84 in 10.0 mi WSW 6.9 mph - N/A   Partly Cloudy
10:52 PM 53.1 °F 45.0 °F 74% 29.85 in 10.0 mi WSW 8.1 mph - N/A   Clear
11:52 PM 52.0 °F 45.0 °F 77% 29.86 in 10.0 mi WSW 9.2 mph - N/A   Clear